Location: Observatoire de la D�couverte de Val-B�lair
(46.8294°N, 71.4556°W)
Time: 18:48:59
(UTC-05:00)

N. Korean satellite - Visible Passes

Search period start: 25 January 2020 00:00
Search period end: 04 February 2020 00:00
Orbit: 454 x 507 km, 97.2° (Epoch: 25 January)

Date Brightness Start Highest point End Pass type
(mag) Time Alt. Az. Time Alt. Az. Time Alt. Az.
25 Jan 7.2 05:27:16 10° NNE 05:30:47 57° E 05:34:20 10° S visible
25 Jan 9.7 17:39:55 10° SW 17:42:15 17° W 17:44:36 10° NW visible
26 Jan 8.7 05:02:04 10° NE 05:05:12 28° E 05:08:22 10° SSE visible
26 Jan 7.8 06:35:40 10° NNW 06:38:28 22° WNW 06:41:17 10° WSW visible
26 Jan 8.5 17:13:27 10° SSW 17:16:35 33° W 17:19:45 10° NNW visible
27 Jan 9.8 04:37:24 10° NE 04:39:32 15° E 04:41:39 10° SE visible
27 Jan 6.9 06:09:43 10° N 06:13:06 41° WNW 06:16:32 10° SW visible
28 Jan 6.5 05:44:03 10° NNE 05:47:40 86° WNW 05:51:18 10° SSW visible
28 Jan 10.2 17:58:17 10° WSW 17:59:16 11° W 18:00:14 10° WNW visible
29 Jan 7.7 05:18:39 10° NNE 05:22:08 45° E 05:25:39 10° S visible
29 Jan 9.5 17:30:50 10° SW 17:33:32 21° W 17:36:15 10° NW visible
30 Jan 9.1 04:53:35 10° NE 04:56:31 23° E 04:59:29 10° SSE visible
30 Jan 7.5 06:26:48 10° N 06:29:53 27° WNW 06:32:59 10° SW visible
31 Jan 10.0 04:29:17 10° ENE 04:30:49 12° E 04:32:20 10° ESE visible
31 Jan 6.7 06:00:58 10° N 06:04:29 52° WNW 06:08:04 10° SSW visible
01 Feb 6.8 05:35:23 10° NNE 05:39:01 75° ESE 05:42:41 10° S visible
01 Feb 9.9 17:48:39 10° WSW 17:50:30 14° W 17:52:23 10° WNW visible
02 Feb 8.3 05:10:04 10° NNE 05:13:28 36° E 05:16:52 10° SSE visible
02 Feb 9.1 17:21:50 10° SSW 17:24:47 27° W 17:27:48 10° NW visible
03 Feb 9.5 04:45:09 10° NE 04:47:49 19° E 04:50:29 10° SE visible
03 Feb 7.3 06:17:58 10° N 06:21:17 33° WNW 06:24:37 10° SW visible
